Flight Track Log - Related Links

Times and Time Zones

All times are in EDT time to prevent confusion due to time zone crossing. See the N400CE flight status page for this flight to view local times or setup timezone preferences in your user account.

Time Position Orientation Groundspeed Altitude Reporting Facility
EDT Latitude Longitude Course Direction KTS MPH feet Rate Location/Type
16:01 33.3167 -84.5833 157° South 138 159 2,600  Level Atlanta TRACON
16:02 33.2833 -84.5667 157° South 136 157 3,300 750 Climbing Atlanta TRACON
16:03 33.2333 -84.5667 180° South 137 158 4,100 857 Climbing Atlanta TRACON
16:04 33.2000 -84.5500 157° South 142 163 5,100 857 Climbing Atlanta TRACON
16:05 33.1667 -84.5333 157° South 144 166 5,900 767 Climbing Atlanta TRACON
16:06 33.1169 -84.5325 179° South 147 169 6,800 857 Climbing Atlanta Center
16:07 33.0775 -84.5197 165° South 142 163 7,800 900 Climbing Atlanta Center
16:08 33.0378 -84.5122 171° South 142 163 8,600 850 Climbing Atlanta Center
16:09 32.9961 -84.5069 174° South 142 163 9,500 1,050 Climbing Atlanta Center
16:10 32.9564 -84.4944 165° South 142 163 10,700 1,050 Climbing Atlanta Center
16:11 32.9189 -84.4917 176° South 142 163 11,600 900 Climbing Atlanta Center
16:12 32.8772 -84.4842 171° South 147 169 12,500 900 Climbing Atlanta Center
16:13 32.8333 -84.4789 174° South 147 169 13,400 850 Climbing Atlanta Center
16:14 32.7917 -84.4689 169° South 152 175 14,200 750 Climbing Atlanta Center
16:15 32.7436 -84.4636 175° South 159 183 14,900 400 Climbing Atlanta Center
16:16 32.6936 -84.4583 175° South 170 196 15,000 50 Climbing Atlanta Center
16:17 32.6392 -84.4508 173° South 182 209 15,000  Level Atlanta Center
16:18 32.5831 -84.4431 173° South 195 224 15,000  Level Atlanta Center
16:19 32.5267 -84.4331 171° South 201 231 15,000  Level Atlanta Center
16:20 32.4725 -84.4206 169° South 201 231 15,000  Level Atlanta Center
16:21 32.4161 -84.4081 169° South 201 231 15,000  Level Atlanta Center
16:22 32.3619 -84.3906 165° South 201 231 15,000  Level Atlanta Center
16:24 32.2458 -84.3492 163° South 204 235 15,000  Level Jacksonville Center
16:25 32.1875 -84.3433 175° South 204 235 15,000  Level Jacksonville Center
16:26 32.1333 -84.3350 173° South 204 235 15,000  Level Jacksonville Center
16:27 32.0750 -84.3294 175° South 199 229 15,000  Level Jacksonville Center
16:28 32.0206 -84.3236 175° South 199 229 15,000  Level Jacksonville Center
16:29 31.9664 -84.3203 177° South 199 229 15,000  Level Jacksonville Center
16:30 31.9100 -84.3144 175° South 199 229 15,000  Level Jacksonville Center
16:31 31.8558 -84.3114 177° South 199 229 15,000  Level Jacksonville Center
16:32 31.8017 -84.3056 175° South 199 229 15,000  Level Jacksonville Center
16:33 31.7453 -84.2925 169° South 199 229 15,000  Level Jacksonville Center
16:34 31.6936 -84.2672 157° South 199 229 15,000  Level Jacksonville Center
16:35 31.6417 -84.2397 156° South 205 236 15,000  Level Jacksonville Center
16:36 31.5917 -84.2144 157° South 210 242 15,000  Level Jacksonville Center
16:37 31.5397 -84.1869 156° South 210 242 15,000  Level Jacksonville Center
16:38 31.4878 -84.1619 158° South 210 242 15,000  Level Jacksonville Center
16:39 31.4381 -84.1319 153° Southeast 210 242 15,000  Level Jacksonville Center
16:40 31.3842 -84.1069 158° South 210 242 15,000  Level Jacksonville Center
16:41 31.3342 -84.0794 155° Southeast 210 242 15,000  Level Jacksonville Center
16:42 31.2822 -84.0544 158° South 210 242 15,000  Level Jacksonville Center
16:43 31.2303 -84.0297 158° South 210 242 15,000  Level Jacksonville Center
16:44 31.1803 -84.0022 155° Southeast 210 242 15,000  Level Jacksonville Center
16:45 31.1306 -83.9750 155° Southeast 210 242 15,000  Level Jacksonville Center
16:46 31.0764 -83.9500 158° South 210 242 15,000  Level Jacksonville Center
16:47 31.0267 -83.9231 155° Southeast 210 242 15,000  Level Jacksonville Center
16:48 30.9744 -83.8981 158° South 210 242 15,000  Level Jacksonville Center
16:49 30.9247 -83.8708 155° Southeast 210 242 15,000  Level Jacksonville Center
16:50 30.8725 -83.8461 158° South 210 242 15,000  Level Jacksonville Center
16:51 30.8206 -83.8239 160° South 210 242 15,000  Level Jacksonville Center
16:52 30.7686 -83.8017 160° South 210 242 15,000  Level Jacksonville Center
16:53 30.7167 -83.7769 158° South 205 236 15,000  Level Jacksonville Center
16:54 30.6625 -83.7547 161° South 205 236 15,000  Level Jacksonville Center
16:55 30.6103 -83.7372 164° South 205 236 15,000  Level Jacksonville Center
16:56 30.5603 -83.7128 157° South 205 236 15,000  Level Jacksonville Center
16:57 30.5042 -83.6906 161° South 205 236 15,000  Level Jacksonville Center
16:58 30.4500 -83.6708 163° South 205 236 15,000  Level Jacksonville Center
16:59 30.3978 -83.6489 160° South 205 236 15,000  Level Jacksonville Center
17:00 30.3458 -83.6242 158° South 205 236 15,000  Level Jacksonville Center
17:01 30.2939 -83.6047 162° South 205 236 15,000  Level Jacksonville Center
17:02 30.2417 -83.5828 160° South 205 236 15,000  Level Jacksonville Center
17:03 30.1853 -83.5631 163° South 205 236 15,000  Level Jacksonville Center
17:04 30.1311 -83.5458 165° South 205 236 15,000  Level Jacksonville Center
17:05 30.0769 -83.5286 165° South 205 236 15,000  Level Jacksonville Center
17:06 30.0208 -83.5164 169° South 205 236 15,000  Level Jacksonville Center
17:07 29.9644 -83.5014 167° South 205 236 15,000  Level Jacksonville Center
17:08 29.9103 -83.4892 169° South 205 236 15,000  Level Jacksonville Center
17:09 29.8558 -83.4769 169° South 200 230 15,000  Level Jacksonville Center
17:10 29.8017 -83.4575 163° South 200 230 15,000  Level Jacksonville Center
17:11 29.7497 -83.4356 160° South 200 230 15,000 -300 Level Jacksonville Center
17:12 29.6997 -83.4067 153° Southeast 210 242 14,400 -600 Descending Jacksonville Center
17:13 29.6456 -83.3706 150° Southeast 215 247 13,800 -550 Descending Jacksonville Center
17:14 29.5978 -83.3319 145° Southeast 220 253 13,300 -500 Descending Jacksonville Center
17:15 29.5456 -83.2936 147° Southeast 220 253 12,800 -450 Descending Jacksonville Center
17:16 29.4956 -83.2553 146° Southeast 220 253 12,400 -900 Descending Jacksonville Center
17:17 29.4436 -83.2192 149° Southeast 220 253 11,000 -1,300 Descending Jacksonville Center
17:18 29.3894 -83.1833 150° Southeast 225 259 9,800 -1,000 Descending Jacksonville Center
17:19 29.3350 -83.1569 157° South 219 252 9,000 -400 Descending Jacksonville Center
17:20 29.2850 -83.1331 157° South 208 239 9,000  Level Jacksonville Center
17:21 29.2392 -83.1139 160° South 191 220 9,000  Level Jacksonville Center
17:22 29.1911 -83.0947 161° South 186 214 9,000 -200 Level Jacksonville Center
17:23 29.1433 -83.0756 161° South 186 214 8,600 -700 Descending Jacksonville Center
17:24 29.0889 -83.0589 165° South 186 214 7,600 -1,100 Descending Jacksonville Center
17:25 29.0347 -83.0350 159° South 196 226 6,400 -1,100 Descending Jacksonville Center
17:26 28.9908 -82.9947 141° Southeast 196 226 5,400 -700 Descending Jacksonville Center
17:27 28.9492 -82.9614 145° Southeast 196 226 5,000 -200 Descending Jacksonville Center
17:28 28.9139 -82.9211 135° Southeast 184 212 5,000 -300 Level Jacksonville Center
17:29 28.8803 -82.8856 137° Southeast 179 206 4,400 -550 Descending Jacksonville Center
17:30 28.8428 -82.8522 142° Southeast 174 200 3,900 -400 Descending Jacksonville Center
17:31 28.8094 -82.8119 133° Southeast 174 200 3,600 -312 Descending Jacksonville Center
17:33 28.7447 -82.7358 134° Southeast 171 197 3,000 -309 Descending Miami Center
17:34 28.7117 -82.7003 137° Southeast 167 192 2,700 -387 Descending Miami Center
17:35 28.6769 -82.6628 137° Southeast 168 193 2,200 -290 Descending Miami Center
17:36 28.6408 -82.6244 137° Southeast 173 199 2,100 -198 Descending Miami Center
17:37 28.6000 -82.5833 139° Southeast 175 201 1,800 -48 Descending Tampa TRACON
17:38 28.5500 -82.5500 150° Southeast 159 183 2,000  Climbing Tampa TRACON
17:39 28.5167 -82.5333 156° South 141 162 1,800 -350 Descending Tampa TRACON
17:40 28.5000 -82.5167 139° Southeast 111 128 1,300 -550 Descending Tampa TRACON
17:41 28.4833 -82.5000 139° Southeast 89 102 700 -500 Descending Tampa TRACON
17:42 28.4833 -82.4667 90° East 77 89 300 -211 Descending Tampa TRACON
17:43 28.4833 -82.4667 90° East 77 89 300  Level Tampa TRACON

Login

Don't have an account? Register now (free) for customized features, flight alerts, and more!